TimeEDT,TemperatureF,Dew PointF,Humidity,Sea Level PressureIn,VisibilityMPH,Wind Direction,Wind SpeedMPH,Gust SpeedMPH,PrecipitationIn,Events,Conditions,WindDirDegrees,DateUTC
12:15 AM,57.2,53.6,88,30.19,7.0,Calm,Calm,-,N/A,,Clear,0,2012-10-23 04:15:00
12:35 AM,55.4,53.6,94,30.18,7.0,Calm,Calm,-,N/A,,Clear,0,2012-10-23 04:35:00
12:55 AM,55.4,53.6,94,30.18,7.0,Calm,Calm,-,N/A,,Clear,0,2012-10-23 04:55:00
1:15 AM,55.4,53.6,94,30.17,7.0,Calm,Calm,-,N/A,,Clear,0,2012-10-23 05:15:00
1:35 AM,55.4,53.6,94,30.17,7.0,Calm,Calm,-,N/A,,Clear,0,2012-10-23 05:35:00
1:55 AM,55.4,53.6,94,30.17,7.0,Calm,Calm,-,N/A,,Clear,0,2012-10-23 05:55:00
2:35 AM,55.4,53.6,94,30.15,7.0,Calm,Calm,-,N/A,,Clear,0,2012-10-23 06:35:00
2:55 AM,55.4,55.4,100,30.15,10.0,Calm,Calm,-,N/A,,Clear,0,2012-10-23 06:55:00
3:15 AM,57.2,55.4,94,30.14,7.0,Calm,Calm,-,N/A,,Clear,0,2012-10-23 07:15:00
3:55 AM,55.4,55.4,100,30.13,7.0,Calm,Calm,-,N/A,,Clear,0,2012-10-23 07:55:00
4:15 AM,57.2,55.4,94,30.13,10.0,Calm,Calm,-,N/A,,Clear,0,2012-10-23 08:15:00
4:35 AM,59.0,57.2,94,30.12,7.0,Calm,Calm,-,N/A,,Clear,0,2012-10-23 08:35:00
4:55 AM,59.0,55.4,88,30.12,10.0,Calm,Calm,-,N/A,,Clear,0,2012-10-23 08:55:00
5:15 AM,59.0,57.2,94,30.12,10.0,NE,4.6,-,N/A,,Clear,50,2012-10-23 09:15:00
6:15 AM,59.0,55.4,88,30.14,7.0,North,3.5,-,N/A,,Clear,350,2012-10-23 10:15:00
6:35 AM,59.0,55.4,88,30.15,7.0,Calm,Calm,-,N/A,,Clear,0,2012-10-23 10:35:00
6:55 AM,59.0,55.4,88,30.15,7.0,North,3.5,-,N/A,,Clear,10,2012-10-23 10:55:00
7:35 AM,59.0,55.4,88,30.15,7.0,NNE,3.5,-,N/A,,Clear,30,2012-10-23 11:35:00
7:55 AM,59.0,55.4,88,30.17,7.0,North,3.5,-,N/A,,Clear,10,2012-10-23 11:55:00
8:35 AM,60.8,57.2,88,30.18,7.0,Calm,Calm,-,N/A,,Clear,0,2012-10-23 12:35:00
8:55 AM,62.6,59.0,88,30.19,7.0,Calm,Calm,-,N/A,,Clear,0,2012-10-23 12:55:00
9:15 AM,64.4,57.2,77,30.19,7.0,NE,8.1,-,N/A,,Clear,40,2012-10-23 13:15:00
9:35 AM,66.2,57.2,73,30.19,7.0,NE,9.2,-,N/A,,Clear,40,2012-10-23 13:35:00
10:15 AM,69.8,55.4,60,30.19,7.0,NE,9.2,-,N/A,,Clear,40,2012-10-23 14:15:00
10:55 AM,71.6,57.2,60,30.19,7.0,NE,9.2,-,N/A,,Clear,40,2012-10-23 14:55:00
11:15 AM,71.6,57.2,60,30.19,7.0,NNE,8.1,-,N/A,,Clear,30,2012-10-23 15:15:00
11:55 AM,73.4,57.2,57,30.18,7.0,NE,8.1,-,N/A,,Clear,50,2012-10-23 15:55:00
12:15 PM,75.2,57.2,53,30.18,7.0,East,6.9,-,N/A,,Clear,90,2012-10-23 16:15:00
12:35 PM,75.2,57.2,53,30.17,7.0,ENE,5.8,-,N/A,,Clear,70,2012-10-23 16:35:00
12:55 PM,77.0,57.2,50,30.16,7.0,ENE,3.5,-,N/A,,Scattered Clouds,60,2012-10-23 16:55:00
1:15 PM,75.2,57.2,53,30.15,7.0,NNE,5.8,-,N/A,,Scattered Clouds,30,2012-10-23 17:15:00
1:35 PM,75.2,57.2,53,30.14,7.0,NNE,4.6,-,N/A,,Scattered Clouds,30,2012-10-23 17:35:00
1:55 PM,75.2,57.2,53,30.14,7.0,NNE,3.5,-,N/A,,Mostly Cloudy,20,2012-10-23 17:55:00
2:15 PM,75.2,57.2,53,30.13,7.0,Calm,Calm,-,N/A,,Scattered Clouds,0,2012-10-23 18:15:00
2:35 PM,77.0,57.2,50,30.12,7.0,North,3.5,-,N/A,,Scattered Clouds,10,2012-10-23 18:35:00
2:55 PM,77.0,59.0,54,30.11,7.0,East,3.5,-,N/A,,Mostly Cloudy,90,2012-10-23 18:55:00
3:35 PM,77.0,59.0,54,30.11,7.0,East,3.5,-,N/A,,Clear,80,2012-10-23 19:35:00
3:55 PM,77.0,59.0,54,30.11,7.0,NE,4.6,-,N/A,,Clear,40,2012-10-23 19:55:00
4:15 PM,77.0,59.0,54,30.11,5.0,NE,4.6,-,N/A,,Haze,40,2012-10-23 20:15:00
4:35 PM,75.2,59.0,57,30.11,7.0,NE,5.8,-,N/A,,Clear,50,2012-10-23 20:35:00
4:55 PM,77.0,59.0,54,30.11,7.0,ESE,3.5,-,N/A,,Clear,120,2012-10-23 20:55:00
5:15 PM,75.2,59.0,57,30.11,7.0,East,6.9,-,N/A,,Clear,100,2012-10-23 21:15:00
5:35 PM,73.4,59.0,61,30.11,5.0,ESE,4.6,-,N/A,,Haze,110,2012-10-23 21:35:00
5:55 PM,71.6,60.8,69,30.11,7.0,East,3.5,-,N/A,,Clear,100,2012-10-23 21:55:00
6:15 PM,71.6,60.8,69,30.11,7.0,ESE,3.5,-,N/A,,Clear,110,2012-10-23 22:15:00
6:35 PM,69.8,60.8,73,30.11,7.0,ESE,4.6,-,N/A,,Clear,110,2012-10-23 22:35:00
6:55 PM,69.8,60.8,73,30.12,10.0,East,3.5,-,N/A,,Clear,90,2012-10-23 22:55:00
7:15 PM,69.8,60.8,73,30.12,7.0,Calm,Calm,-,N/A,,Clear,0,2012-10-23 23:15:00
7:35 PM,68.0,60.8,78,30.13,7.0,East,3.5,-,N/A,,Clear,100,2012-10-23 23:35:00
7:55 PM,66.2,60.8,83,30.13,7.0,Calm,Calm,-,N/A,,Clear,0,2012-10-23 23:55:00
8:15 PM,64.4,60.8,88,30.14,7.0,Calm,Calm,-,N/A,,Clear,0,2012-10-24 00:15:00
8:35 PM,66.2,62.6,88,30.14,10.0,Calm,Calm,-,N/A,,Clear,0,2012-10-24 00:35:00
8:55 PM,66.2,62.6,88,30.14,7.0,Calm,Calm,-,N/A,,Clear,0,2012-10-24 00:55:00
9:15 PM,66.2,62.6,88,30.14,10.0,Calm,Calm,-,N/A,,Clear,0,2012-10-24 01:15:00
9:35 PM,66.2,62.6,88,30.14,7.0,Calm,Calm,-,N/A,,Clear,0,2012-10-24 01:35:00
9:55 PM,66.2,62.6,88,30.15,7.0,ENE,3.5,-,N/A,,Clear,60,2012-10-24 01:55:00
10:15 PM,64.4,62.6,94,30.15,10.0,Calm,Calm,-,N/A,,Clear,0,2012-10-24 02:15:00
10:35 PM,64.4,62.6,94,30.15,7.0,Calm,Calm,-,N/A,,Clear,0,2012-10-24 02:35:00
10:55 PM,64.4,62.6,94,30.15,7.0,Calm,Calm,-,N/A,,Clear,0,2012-10-24 02:55:00
11:15 PM,64.4,62.6,94,30.15,7.0,Calm,Calm,-,N/A,,Scattered Clouds,0,2012-10-24 03:15:00
11:35 PM,64.4,62.6,94,30.15,7.0,NE,4.6,-,N/A,,Clear,50,2012-10-24 03:35:00
11:55 PM,64.4,62.6,94,30.14,10.0,NNE,3.5,-,N/A,,Clear,30,2012-10-24 03:55:00